Погода в Синске

Россия / Республика Саха (Якутия)     61°07′51″N   126°49′57″E
темп.,
°C
ветер,
м/с
пор.,
м/с
влажн.,
%
обл.,
%
осадки,
мм/ч
давл.,
гПа
погр.,
м
19 сентября, вс
вс1900:00+2зсз51183100 0.0 10121020
03:00+2зсз41183100 0.0 1012932
06:00+2зсз5118395 0.0 1012909
09:00+2зсз51084100 0.0 10121213
12:00+4зсз61063100 0.0 10111312
15:00+3зсз51068100 0.1 10111415
18:00+3зсз5971100 0.0 10111104
21:00+1зсз411825 0.0 1011520
20 сентября, пн
пн2000:00−1з310895 0.0 1011391
03:00−1з310915 0.0 1012345
06:00−2з310895 0.0 1012379
09:00+2зсз48645 0.0 1013684
12:00+5зсз455412 0.0 10131075
15:00+6сз345334 0.0 10131195
18:00+3ссз11736 0.0 101411
21:000в00885 0.0 101610
21 сентября, вт
вт2100:00−1юв11925 0.0 101610
03:00−1юв11932 0.0 101710
06:00−2вюв119448 0.0 101716
09:00+3вюв35705 0.0 1017346
12:00+8юв45523 0.0 1015880
15:00+10юв46512 0.0 1014991
18:00+6вюв410695 0.0 1014345
21:00+3вюв3118539 0.0 1015286
22 сентября, ср
ср2200:00+1вюв3108821 0.0 1015295
03:00+1вюв410895 0.0 1015263
06:000в4108933 0.0 1015254
09:00+5вюв48715 0.0 1014295
12:00+12юв475723 0.0 1013560
15:00+16юв475835 0.0 1013882
18:00+11вюв248023 0.0 101465
21:00+7вюв219193 0.0 101514
23 сентября, чт
чт2300:00+7зюз2392100 0.0 101683
03:00+7з3794100 0.9 1019424
06:00+6з269241 0.4 1020394
09:00+6з2392100 0.4 1021479
12:00+6зсз1190100 0.1 1022366
15:00+6св1296100 0.9 1021149
18:00+5ссв1298100 3.0 1021110
21:00+5ссв2599100 7.0 1021244